Regional Weather Roundup
Issued by NWS Wilmington, NC

Current Version | Previous Version | Graphics & Text | Print | Product List | Glossary Off
Versions: 1 2 3 4 5 6 7 8 9 10 11 12 13 14 15 16 17 18 19 20 21 22 23 24 25 26 27 28 29 30 31 32 33 34 35 36 37 38 39 40 41 42 43 44 45 46 47 48 49 50

000
ASUS42 KILM 211212
RWRILM
RWRILM
REGIONAL HOURLY WEATHER ROUNDUP
NATIONAL WEATHER SERVICE WILMINGTON NC
800 AM EDT WED APR 21 2021

NOTE: "FAIR" INDICATES FEW OR NO CLOUDS BELOW 12,000 FEET WITH NO
SIGNIFICANT WEATHER AND/OR OBSTRUCTIONS TO VISIBILITY.

...............WFO WILMINGTON COUNTY WARNING AREA...............

......COASTAL NC AND SC COUNTIES......

CITY           SKY/WX    TMP DP  RH WIND       PRES   REMARKS
WILMINGTON     SUNNY     64  60  87 SW6       29.88F
N MYRTLE BEACH SUNNY     63  61  93 SW8       29.89S
MYRTLE BEACH   SUNNY     66  62  87 SW6       29.90S

......INLAND NC AND SC COUNTIES.......

CITY           SKY/WX    TMP DP  RH WIND       PRES   REMARKS
LUMBERTON      NOT AVBL
ELIZABETHTOWN  SUNNY     61  57  87 S8        29.88S
WHITEVILLE     SUNNY     61  58  88 S6        29.89S
FLORENCE       SUNNY     61  56  83 SW9       29.88R
DARLINGTON     SUNNY     59  57  93 SW8       29.87
KINGSTREE      FAIR      59  59 100 CALM      29.89S
HARTSVILLE     FAIR      55  54  94 CALM      29.87S
BENNETTSVILLE  FAIR      55  54  94 S3        29.86S
CONWAY         FAIR      61  59  94 S6        29.89S
GEORGETOWN     FAIR      63  61  94 SW7       29.91S
MARION         FAIR      59  59 100 SW5       29.88S

....................REST OF NORTH CAROLINA......................

.........EASTERN NC.........

CITY           SKY/WX    TMP DP  RH WIND       PRES   REMARKS
CAPE HATTERAS  SUNNY     64  59  83 CALM      29.88F
JACKSONVILLE   SUNNY     60  57  89 S7        29.88F
MOREHEAD CITY  SUNNY     66  59  78 SW8       29.88F
KENANSVILLE    SUNNY     59  55  88 SW3       29.87S
NEW BERN       SUNNY     62  57  83 S7        29.88F
ELIZABETH CITY SUNNY     63  55  75 S9        29.84F

.........CENTRAL NC.........

CITY           SKY/WX    TMP DP  RH WIND       PRES   REMARKS
RALEIGH DURHAM MOSUNNY   59  54  83 SW10      29.83F
ROCKY MOUNT    SUNNY     58  52  80 S5        29.84F
ROANOKE RAPIDS NOT AVBL
FAYETTEVILLE   SUNNY     59  55  87 S8        29.84F
HOFFMAN        SUNNY     58  56  91 SW9       29.84F

.........WESTERN NC.........

CITY           SKY/WX    TMP DP  RH WIND       PRES   REMARKS
CHARLOTTE      SUNNY     57  53  86 SW8       29.84S
GREENSBORO     MOSUNNY   56  51  84 SW13      29.80F
HICKORY        NOT AVBL
BOONE          NOT AVBL
ASHEVILLE      NOT AVBL

.....................REST OF SOUTH CAROLINA.....................

.........EASTERN SC.........

CITY           SKY/WX    TMP DP  RH WIND       PRES   REMARKS
CHARLESTON     SUNNY     64  61  90 SW9       29.91R
BEAUFORT MCAS  SUNNY     65  61  87 SW8       29.93R
HILTON HEAD    SUNNY     66  63  88 W6        29.94R

.........CENTRAL SC.........

CITY           SKY/WX    TMP DP  RH WIND       PRES   REMARKS
COLUMBIA       SUNNY     58  53  84 W7        29.88R
ORANGEBURG     SUNNY     57  57 100 SW6       29.90S
SUMTER SHAW    SUNNY     61  56  83 SW10      29.87R

.........WESTERN SC.........

CITY           SKY/WX    TMP DP  RH WIND       PRES   REMARKS
GREENVILLE     NOT AVBL
ROCK HILL      SUNNY     55  52  89 SW6       29.85S
ANDERSON       SUNNY     54  48  80 SW6       29.87S
CLEMSON        NOT AVBL
GREENWOOD      SUNNY     55  49  80 W8        29.89R


...................COASTAL AND OFFSHORE REPORTS..................

................LOCAL PIERS AND NC RESERVE................


STATION/POSITION TIME  SKY/WX   TEMP    WIND        PRES    VSBY
                                AIR SEA DIR/SP/G
                 (UTC)          (F)     (DEG/KT/KT) (MB)    (MI)
JOHNY MRCER PIER 1130            65 65  220/  6/  7 1011.7R
NC RESRV MASNBRO 1045            62     250/  2       N/A
OCEAN CREST PIER NOT AVBL
SPRINGMAID  PIER 1130            65                   N/A


................COASTAL AND OFFSHORE BUOYS................


STATION/POSITION TIME  SKY/WX   TEMP    WIND        PRES    VSBY
                                AIR SEA DIR/SP/G
                 (UTC)          (F)     (DEG/KT/KT) (MB)    (MI)
DIMNDSHOAL 41025 NOT AVBL
CAPE LOOKOUT     1200            67     230/  6/  7 1012.3F
ONSLOW BAY 41036 NOT AVBL
ONSLOW BAY 41064 NOT AVBL
ONSLOW BAY 41159 1126               67                N/A
WVE H/P(F/S)=  2/ 7

MASNBO INL 41110 1107               65                N/A
WVE H/P(F/S)=  2/ 6

WILM HARBR 41108 1130               66                N/A
WVE H/P(F/S)=  2/ 5

27SE WRITB 41037 1108            67 67  190/  6/ 10 1012.1R
FRYING PAN 41013 1150               68  220/  4/  6 1011.9R
WVE H/P(F/S)=  2/ 8 SWL H/P/D(F/S/D)=  2/100/ 8

SUNST NRSH 41024 1108            66 66  230/  8/ 10 1013.6R
CAPRS NRSH 41029 1123            67 67  220/  8/ 12 1012.8
EDISTO     41004 NOT AVBL


..........OFFSHORE BUOYS BEYOND 100 NM OFFSHORE...........
.....IN A TRIANGLE---HAT TO BERMUDA TO BAHAMAS TO HAT.....


STATION/POSITION TIME  SKY/WX   TEMP    WIND        PRES    VSBY
                                AIR SEA DIR/SP/G
                 (UTC)          (F)     (DEG/KT/KT) (MB)    (MI)
150E HAT   41001 NOT AVBL
W BERMUDA  41048 1150            70 70  190/ 14/ 17 1015.3R
WVE H/P(F/S)=  5/ 8 SWL H/P/D(F/S/D)=  3/ 10/ 8

ATLANTIC S 41049 1150               75  180/  8/ 10   N/A
WVE H/P(F/S)=  4/ 8 SWL H/P/D(F/S/D)=  3/130/ 8

E BAHAMAS  41046 1150            78 78  130/ 14/ 16 1020.3R
WVE H/P(F/S)=  4/ 9 SWL H/P/D(F/S/D)=  3/100/ 9

NE BAHAMAS 41047 NOT AVBL
120E CANVRL41010 1150            75     240/ 14/ 17 1014.4R
WVE H/P(F/S)=  3/ 8 SWL H/P/D(F/S/D)=  2/ 20/ 8


END



USA.gov is the U.S. government's official web portal to all federal, state and local government web resources and services.